| time (UTC) | temp C | wind direction | speed KPH | gust KPH | rain 1hr cm | rain 24hr cm | rain mn cm | humidity % | barometer mb |
| 20260906191048 | 19 | 238 | 17.7 | 0.0 | 0.00 | 0.00 | 0.51 | 93 | 1013.1 |
| 20260906190535 | 19 | 173 | 19.3 | 0.0 | 0.00 | 0.00 | 0.48 | 93 | 1013.1 |
| 20260906190055 | 19 | 126 | 16.1 | 0.0 | 0.00 | 0.00 | 0.46 | 93 | 1013.5 |
| 20260906185537 | 19 | 119 | 11.3 | 0.0 | 0.00 | 0.00 | 0.38 | 93 | 1013.5 |
| 20260906185059 | 19 | 117 | 9.7 | 0.0 | 0.00 | 0.00 | 0.36 | 93 | 1013.5 |
| 20260906185002 | 19 | 128 | 9.7 | 0.0 | 0.00 | 0.00 | 0.36 | 93 | 1013.5 |
| 20260906184541 | 19 | 145 | 12.9 | 0.0 | 0.00 | 0.00 | 0.36 | 92 | 1012.6 |
| 20260906184011 | 19 | 148 | 17.7 | 0.0 | 0.00 | 0.00 | 0.36 | 92 | 1012.6 |
| 20260906183546 | 19 | 153 | 22.5 | 0.0 | 0.00 | 0.00 | 0.33 | 92 | 1012.6 |
| 20260906183016 | 19 | 134 | 27.4 | 0.0 | 0.00 | 0.00 | 0.33 | 92 | 1012.9 |
| 20260906182553 | 19 | 133 | 29.0 | 0.0 | 0.00 | 0.00 | 0.33 | 92 | 1012.9 |
| 20260906182019 | 20 | 360 | 27.4 | 0.0 | 0.00 | 0.00 | 0.30 | 92 | 1012.9 |
| 20260906181554 | 20 | 130 | 29.0 | 0.0 | 0.00 | 0.00 | 0.23 | 91 | 1013.0 |
| 20260906181034 | 21 | 164 | 30.6 | 0.0 | 0.00 | 0.00 | 0.18 | 92 | 1013.0 |
| 20260906180515 | 21 | 194 | 24.1 | 0.0 | 0.00 | 0.00 | 0.13 | 91 | 1013.0 |
| 20260906175531 | 22 | 197 | 22.5 | 0.0 | 0.00 | 0.00 | 0.08 | 92 | 1012.6 |
| 20260906175053 | 23 | 141 | 24.1 | 0.0 | 0.00 | 0.00 | 0.05 | 92 | 1012.6 |
| 20260906174535 | 23 | 130 | 20.9 | 0.0 | 0.00 | 0.00 | 0.03 | 91 | 1012.5 |
| 20260906174058 | 24 | 123 | 16.1 | 0.0 | 0.00 | 0.00 | 0.00 | 91 | 1012.5 |
| 20260906173542 | 24 | 122 | 16.1 | 0.0 | 0.00 | 0.00 | 0.00 | 90 | 1012.5 |
| 20260906173059 | 25 | 122 | 17.7 | 0.0 | 0.00 | 0.00 | 0.00 | 90 | 1012.6 |
| 20260906172529 | 24 | 134 | 16.1 | 0.0 | 0.00 | 0.00 | 0.00 | 90 | 1012.6 |
| 20260906172017 | 25 | 145 | 14.5 | 0.0 | 0.00 | 0.00 | 0.00 | 90 | 1012.6 |
| 20260906171557 | 25 | 142 | 16.1 | 0.0 | 0.00 | 0.00 | 0.00 | 90 | 1012.4 |
| 20260906171030 | 25 | 137 | 14.5 | 0.0 | 0.00 | 0.00 | 0.00 | 90 | 1012.4 |
| 20260906170514 | 25 | 147 | 16.1 | 0.0 | 0.00 | 0.00 | 0.00 | 90 | 1012.4 |
| 20260906170045 | 25 | 144 | 16.1 | 0.0 | 0.00 | 0.00 | 0.00 | 90 | 1012.3 |
| 20260906165513 | 25 | 126 | 16.1 | 0.0 | 0.00 | 0.00 | 0.00 | 89 | 1012.3 |
| 20260906165044 | 25 | 130 | 19.3 | 0.0 | 0.00 | 0.00 | 0.00 | 89 | 1012.3 |
| 20260906164513 | 25 | 146 | 19.3 | 0.0 | 0.00 | 0.00 | 0.00 | 89 | 1011.7 |
| 20260906164049 | 25 | 158 | 17.7 | 0.0 | 0.00 | 0.00 | 0.00 | 89 | 1011.7 |
| 20260906163514 | 25 | 158 | 14.5 | 0.0 | 0.00 | 0.00 | 0.00 | 90 | 1011.7 |
| 20260906163101 | 25 | 167 | 14.5 | 0.0 | 0.00 | 0.00 | 0.00 | 91 | 1011.6 |
| 20260906162519 | 25 | 134 | 16.1 | 0.0 | 0.00 | 0.00 | 0.00 | 91 | 1011.6 |
| 20260906162054 | 25 | 153 | 16.1 | 0.0 | 0.00 | 0.00 | 0.00 | 91 | 1011.6 |
| 20260906161536 | 25 | 139 | 16.1 | 0.0 | 0.00 | 0.00 | 0.00 | 92 | 1011.5 |
| 20260906161056 | 24 | 143 | 17.7 | 0.0 | 0.00 | 0.00 | 0.00 | 92 | 1011.5 |
| 20260906160532 | 24 | 142 | 16.1 | 0.0 | 0.00 | 0.00 | 0.00 | 92 | 1011.5 |
| 20260906160028 | 25 | 162 | 14.5 | 0.0 | 0.00 | 0.00 | 0.00 | 93 | 1011.5 |
| 20260906155546 | 24 | 159 | 12.9 | 0.0 | 0.00 | 0.00 | 0.00 | 93 | 1011.5 |
| 20260906155027 | 24 | 146 | 12.9 | 0.0 | 0.00 | 0.00 | 0.00 | 94 | 1011.5 |
| 20260906154547 | 24 | 151 | 14.5 | 0.0 | 0.00 | 0.00 | 0.00 | 94 | 1011.5 |
| 20260906154030 | 24 | 150 | 14.5 | 0.0 | 0.00 | 0.00 | 0.00 | 95 | 1011.5 |
| 20260906153546 | 24 | 142 | 12.9 | 0.0 | 0.00 | 0.00 | 0.00 | 95 | 1011.5 |
| 20260906153032 | 24 | 160 | 12.9 | 0.0 | 0.00 | 0.00 | 0.00 | 96 | 1011.5 |
| 20260906152508 | 23 | 134 | 12.9 | 0.0 | 0.00 | 0.00 | 0.00 | 96 | 1011.5 |
| 20260906152047 | 24 | 159 | 12.9 | 0.0 | 0.00 | 0.00 | 0.00 | 96 | 1011.5 |
| 20260906151515 | 23 | 140 | 12.9 | 0.0 | 0.00 | 0.00 | 0.00 | 97 | 1011.3 |
| 20260906151036 | 23 | 144 | 14.5 | 0.0 | 0.00 | 0.00 | 0.00 | 97 | 1011.3 |
| 20260906150521 | 23 | 130 | 12.9 | 0.0 | 0.00 | 0.00 | 0.00 | 97 | 1011.3 |
| 20260906150110 | 23 | 146 | 12.9 | 0.0 | 0.00 | 0.00 | 0.00 | 97 | 1011.4 |
| 20260906145520 | 23 | 150 | 14.5 | 0.0 | 0.00 | 0.00 | 0.00 | 97 | 1011.4 |
| 20260906145058 | 23 | 132 | 12.9 | 0.0 | 0.00 | 0.00 | 0.00 | 97 | 1011.4 |
| 20260906145002 | 23 | 136 | 12.9 | 0.0 | 0.00 | 0.00 | 0.00 | 97 | 1011.4 |
| 20260906144522 | 23 | 135 | 12.9 | 0.0 | 0.00 | 0.00 | 0.00 | 97 | 1011.3 |
| 20260906144043 | 23 | 148 | 11.3 | 0.0 | 0.00 | 0.00 | 0.00 | 97 | 1011.3 |
| 20260906143522 | 23 | 152 | 9.7 | 0.0 | 0.00 | 0.00 | 0.00 | 97 | 1011.3 |
| 20260906143051 | 23 | 133 | 9.7 | 0.0 | 0.00 | 0.00 | 0.00 | 98 | 1011.3 |
| 20260906142524 | 23 | 156 | 11.3 | 0.0 | 0.00 | 0.00 | 0.00 | 97 | 1011.3 |
| 20260906142007 | 23 | 157 | 11.3 | 0.0 | 0.00 | 0.00 | 0.00 | 97 | 1011.3 |
| 20260906141547 | 23 | 130 | 11.3 | 0.0 | 0.00 | 0.00 | 0.00 | 97 | 1011.1 |
| 20260906141023 | 23 | 146 | 11.3 | 0.0 | 0.00 | 0.00 | 0.00 | 97 | 1011.1 |
| 20260906140507 | 23 | 138 | 9.7 | 0.0 | 0.00 | 0.00 | 0.00 | 97 | 1011.1 |
| 20260906140030 | 23 | 126 | 9.7 | 0.0 | 0.00 | 0.00 | 0.00 | 97 | 1011.2 |
| 20260906135508 | 23 | 119 | 11.3 | 0.0 | 0.00 | 0.00 | 0.00 | 97 | 1011.2 |
| 20260906135032 | 23 | 123 | 11.3 | 0.0 | 0.00 | 0.00 | 0.00 | 97 | 1011.2 |
| 20260906134512 | 23 | 121 | 9.7 | 0.0 | 0.00 | 0.00 | 0.00 | 97 | 1011.4 |
| 20260906134039 | 23 | 131 | 9.7 | 0.0 | 0.00 | 0.00 | 0.00 | 97 | 1011.4 |
| 20260906133521 | 23 | 127 | 9.7 | 0.0 | 0.00 | 0.00 | 0.00 | 97 | 1011.4 |
| 20260906133112 | 23 | 119 | 8.0 | 0.0 | 0.00 | 0.00 | 0.00 | 97 | 1011.7 |
| 20260906132538 | 22 | 125 | 8.0 | 0.0 | 0.00 | 0.00 | 0.00 | 97 | 1011.7 |
| 20260906132012 | 22 | 132 | 8.0 | 0.0 | 0.00 | 0.00 | 0.00 | 97 | 1011.7 |
| 20260906131535 | 22 | 128 | 8.0 | 0.0 | 0.00 | 0.00 | 0.00 | 97 | 1011.5 |
| 20260906131012 | 22 | 130 | 8.0 | 0.0 | 0.00 | 0.00 | 0.00 | 97 | 1011.5 |
| 20260906130534 | 22 | 149 | 8.0 | 0.0 | 0.00 | 0.00 | 0.00 | 97 | 1011.5 |
| 20260906130016 | 22 | 143 | 8.0 | 0.0 | 0.00 | 0.00 | 0.00 | 97 | 1011.3 |
| 20260906125541 | 22 | 136 | 8.0 | 0.0 | 0.00 | 0.00 | 0.00 | 97 | 1011.3 |
| 20260906125023 | 22 | 134 | 8.0 | 0.0 | 0.00 | 0.00 | 0.00 | 97 | 1011.3 |
| 20260906124546 | 22 | 123 | 9.7 | 0.0 | 0.00 | 0.00 | 0.00 | 97 | 1011.2 |
| 20260906124011 | 22 | 128 | 9.7 | 0.0 | 0.00 | 0.00 | 0.00 | 97 | 1011.2 |
| 20260906123546 | 22 | 119 | 9.7 | 0.0 | 0.00 | 0.00 | 0.00 | 97 | 1011.2 |
| 20260906123013 | 22 | 119 | 9.7 | 0.0 | 0.00 | 0.00 | 0.00 | 97 | 1011.1 |
| 20260906122548 | 22 | 117 | 9.7 | 0.0 | 0.00 | 0.00 | 0.00 | 97 | 1011.1 |
| 20260906122017 | 22 | 117 | 9.7 | 0.0 | 0.00 | 0.00 | 0.00 | 97 | 1011.1 |
| 20260906121554 | 22 | 113 | 8.0 | 0.0 | 0.00 | 0.00 | 0.00 | 97 | 1010.5 |
| 20260906121022 | 22 | 112 | 8.0 | 0.0 | 0.00 | 0.00 | 0.00 | 97 | 1010.5 |
| 20260906120601 | 22 | 110 | 8.0 | 0.0 | 0.00 | 0.00 | 0.00 | 97 | 1010.5 |
| 20260906120505 | 22 | 105 | 8.0 | 0.0 | 0.00 | 0.00 | 0.00 | 97 | 1010.5 |
| 20260906120031 | 22 | 109 | 8.0 | 0.0 | 0.00 | 0.00 | 0.00 | 97 | 1010.3 |
| 20260906115558 | 22 | 114 | 8.0 | 0.0 | 0.00 | 0.00 | 0.00 | 97 | 1010.3 |
| 20260906115507 | 22 | 115 | 8.0 | 0.0 | 0.00 | 0.00 | 0.00 | 97 | 1010.3 |
| 20260906115044 | 22 | 108 | 9.7 | 0.0 | 0.00 | 0.00 | 0.00 | 97 | 1010.3 |
| 20260906114536 | 22 | 114 | 9.7 | 0.0 | 0.00 | 0.00 | 0.00 | 97 | 1010.2 |
| 20260906114008 | 22 | 116 | 9.7 | 0.0 | 0.00 | 0.00 | 0.00 | 97 | 1010.2 |
| 20260906113528 | 22 | 110 | 8.0 | 0.0 | 0.00 | 0.00 | 0.00 | 97 | 1010.2 |
| 20260906113012 | 22 | 109 | 9.7 | 0.0 | 0.00 | 0.00 | 0.00 | 97 | 1010.2 |
| 20260906112548 | 22 | 109 | 9.7 | 0.0 | 0.00 | 0.00 | 0.00 | 97 | 1010.2 |
| 20260906112017 | 22 | 108 | 8.0 | 0.0 | 0.00 | 0.00 | 0.00 | 97 | 1010.2 |
| 20260906111609 | 22 | 109 | 8.0 | 0.0 | 0.00 | 0.00 | 0.00 | 97 | 1010.1 |
| 20260906111020 | 22 | 110 | 8.0 | 0.0 | 0.00 | 0.00 | 0.00 | 97 | 1010.1 |
| 20260906110558 | 22 | 110 | 9.7 | 0.0 | 0.00 | 0.00 | 0.00 | 97 | 1010.1 |
| 20260906110025 | 22 | 110 | 8.0 | 0.0 | 0.00 | 0.00 | 0.00 | 97 | 1010.1 |
| 20260906105506 | 22 | 100 | 8.0 | 0.0 | 0.00 | 0.00 | 0.00 | 97 | 1010.1 |
| 20260906105034 | 22 | 94 | 9.7 | 0.0 | 0.00 | 0.00 | 0.00 | 97 | 1010.1 |
| 20260906104521 | 22 | 98 | 8.0 | 0.0 | 0.00 | 0.00 | 0.00 | 97 | 1010.1 |
| 20260906104040 | 22 | 101 | 8.0 | 0.0 | 0.00 | 0.00 | 0.00 | 97 | 1010.1 |
| 20260906103508 | 22 | 107 | 8.0 | 0.0 | 0.00 | 0.00 | 0.00 | 97 | 1010.1 |
| 20260906103051 | 22 | 97 | 8.0 | 0.0 | 0.00 | 0.00 | 0.00 | 97 | 1010.1 |
| 20260906102519 | 22 | 101 | 8.0 | 0.0 | 0.00 | 0.00 | 0.00 | 97 | 1010.1 |
| 20260906102054 | 22 | 112 | 8.0 | 0.0 | 0.00 | 0.00 | 0.00 | 97 | 1010.1 |
| 20260906101523 | 22 | 119 | 8.0 | 0.0 | 0.00 | 0.00 | 0.00 | 97 | 1009.9 |
| 20260906101054 | 22 | 115 | 9.7 | 0.0 | 0.00 | 0.00 | 0.00 | 97 | 1009.9 |
| 20260906100518 | 22 | 123 | 11.3 | 0.0 | 0.00 | 0.00 | 0.00 | 97 | 1009.9 |
| 20260906100057 | 22 | 120 | 11.3 | 0.0 | 0.00 | 0.00 | 0.00 | 97 | 1009.9 |
| 20260906095531 | 22 | 120 | 11.3 | 0.0 | 0.00 | 0.00 | 0.00 | 97 | 1009.9 |
| 20260906095100 | 22 | 119 | 11.3 | 0.0 | 0.00 | 0.00 | 0.00 | 97 | 1009.9 |
| 20260906095002 | 22 | 116 | 11.3 | 0.0 | 0.00 | 0.00 | 0.00 | 97 | 1009.9 |
| 20260906094541 | 22 | 115 | 11.3 | 0.0 | 0.00 | 0.00 | 0.00 | 97 | 1010.0 |
| 20260906094024 | 22 | 123 | 11.3 | 0.0 | 0.00 | 0.00 | 0.00 | 97 | 1010.0 |
| 20260906093544 | 22 | 115 | 11.3 | 0.0 | 0.00 | 0.00 | 0.00 | 97 | 1010.0 |
| 20260906093028 | 22 | 113 | 9.7 | 0.0 | 0.00 | 0.00 | 0.00 | 97 | 1010.2 |
| 20260906092549 | 22 | 119 | 8.0 | 0.0 | 0.00 | 0.00 | 0.00 | 97 | 1010.2 |
| 20260906092028 | 22 | 128 | 8.0 | 0.0 | 0.00 | 0.00 | 0.00 | 97 | 1010.2 |
| 20260906091519 | 22 | 126 | 8.0 | 0.0 | 0.00 | 0.00 | 0.00 | 97 | 1010.1 |
| 20260906091035 | 22 | 123 | 8.0 | 0.0 | 0.00 | 0.00 | 0.00 | 97 | 1010.1 |
| 20260906090512 | 22 | 126 | 8.0 | 0.0 | 0.00 | 0.00 | 0.00 | 97 | 1010.1 |
| 20260906090036 | 22 | 119 | 8.0 | 0.0 | 0.00 | 0.00 | 0.00 | 97 | 1009.8 |
| 20260906085510 | 22 | 106 | 9.7 | 0.0 | 0.00 | 0.00 | 0.00 | 97 | 1009.8 |
| 20260906085040 | 22 | 109 | 11.3 | 0.0 | 0.00 | 0.00 | 0.00 | 97 | 1009.8 |
| 20260906084525 | 22 | 105 | 11.3 | 0.0 | 0.00 | 0.00 | 0.00 | 97 | 1009.7 |
| 20260906084047 | 22 | 111 | 11.3 | 0.0 | 0.00 | 0.00 | 0.00 | 96 | 1009.7 |
| 20260906083529 | 22 | 110 | 11.3 | 0.0 | 0.00 | 0.00 | 0.00 | 96 | 1009.7 |
| 20260906083006 | 22 | 115 | 9.7 | 0.0 | 0.00 | 0.00 | 0.00 | 96 | 1009.6 |
| 20260906082542 | 22 | 115 | 9.7 | 0.0 | 0.00 | 0.00 | 0.00 | 96 | 1009.6 |
| 20260906082024 | 21 | 104 | 9.7 | 0.0 | 0.00 | 0.00 | 0.00 | 96 | 1009.6 |
| 20260906081549 | 21 | 108 | 8.0 | 0.0 | 0.00 | 0.00 | 0.00 | 96 | 1009.7 |
| 20260906081014 | 21 | 96 | 8.0 | 0.0 | 0.00 | 0.00 | 0.00 | 96 | 1009.7 |
| 20260906080556 | 21 | 111 | 8.0 | 0.0 | 0.00 | 0.00 | 0.00 | 96 | 1009.7 |
| 20260906080024 | 21 | 105 | 6.4 | 0.0 | 0.00 | 0.00 | 0.00 | 96 | 1009.6 |
| 20260906075508 | 21 | 92 | 4.8 | 0.0 | 0.00 | 0.00 | 0.00 | 96 | 1009.6 |
| 20260906075032 | 20 | 102 | 1.6 | 0.0 | 0.00 | 0.00 | 0.00 | 96 | 1009.6 |
| 20260906074509 | 20 | 112 | 0.0 | 0.0 | 0.00 | 0.00 | 0.00 | 96 | 1009.7 |
| 20260906074040 | 20 | 112 | 3.2 | 0.0 | 0.00 | 0.00 | 0.00 | 95 | 1009.7 |
| 20260906073556 | 20 | 112 | 4.8 | 0.0 | 0.00 | 0.00 | 0.00 | 95 | 1009.7 |
| 20260906073040 | 20 | 114 | 4.8 | 0.0 | 0.00 | 0.00 | 0.00 | 95 | 1009.6 |
| 20260906072600 | 20 | 119 | 4.8 | 0.0 | 0.00 | 0.00 | 0.00 | 95 | 1009.6 |
| 20260906072509 | 20 | 119 | 6.4 | 0.0 | 0.00 | 0.00 | 0.00 | 95 | 1009.6 |
| 20260906072046 | 21 | 120 | 8.0 | 0.0 | 0.00 | 0.00 | 0.00 | 95 | 1009.6 |
| 20260906071512 | 21 | 124 | 9.7 | 0.0 | 0.00 | 0.00 | 0.00 | 95 | 1010.1 |
| 20260906071050 | 21 | 122 | 8.0 | 0.0 | 0.00 | 0.00 | 0.00 | 95 | 1010.1 |
| 20260906070511 | 20 | 138 | 8.0 | 0.0 | 0.00 | 0.00 | 0.00 | 96 | 1010.1 |
| 20260906070046 | 20 | 130 | 6.4 | 0.0 | 0.00 | 0.00 | 0.00 | 94 | 1010.3 |
| 20260906065534 | 20 | 123 | 6.4 | 0.0 | 0.00 | 0.00 | 0.00 | 94 | 1010.3 |
| 20260906065055 | 20 | 123 | 6.4 | 0.0 | 0.00 | 0.00 | 0.00 | 94 | 1010.3 |
| 20260906064538 | 20 | 120 | 8.0 | 0.0 | 0.00 | 0.00 | 0.00 | 93 | 1010.4 |
| 20260906064019 | 20 | 111 | 8.0 | 0.0 | 0.00 | 0.00 | 0.00 | 93 | 1010.4 |
| 20260906063550 | 20 | 109 | 9.7 | 0.0 | 0.00 | 0.00 | 0.00 | 93 | 1010.4 |
| 20260906063034 | 21 | 107 | 9.7 | 0.0 | 0.00 | 0.00 | 0.00 | 93 | 1010.4 |
| 20260906062557 | 21 | 101 | 8.0 | 0.0 | 0.00 | 0.00 | 0.00 | 93 | 1010.4 |
| 20260906062042 | 21 | 95 | 8.0 | 0.0 | 0.00 | 0.00 | 0.00 | 93 | 1010.4 |
| 20260906061512 | 21 | 86 | 8.0 | 0.0 | 0.00 | 0.00 | 0.00 | 93 | 1010.6 |
| 20260906061050 | 21 | 82 | 8.0 | 0.0 | 0.00 | 0.00 | 0.00 | 93 | 1010.6 |
| 20260906060512 | 21 | 76 | 6.4 | 0.0 | 0.00 | 0.00 | 0.00 | 93 | 1010.6 |
| 20260906060037 | 21 | 67 | 8.0 | 0.0 | 0.00 | 0.00 | 0.00 | 93 | 1010.8 |
| 20260906055516 | 21 | 74 | 8.0 | 0.0 | 0.00 | 0.00 | 0.00 | 93 | 1010.8 |
| 20260906055038 | 20 | 84 | 8.0 | 0.0 | 0.00 | 0.00 | 0.00 | 93 | 1010.8 |
| 20260906054535 | 20 | 81 | 8.0 | 0.0 | 0.00 | 0.00 | 0.00 | 92 | 1010.9 |
| 20260906054044 | 20 | 80 | 6.4 | 0.0 | 0.00 | 0.00 | 0.00 | 92 | 1010.9 |
| 20260906053524 | 20 | 86 | 3.2 | 0.0 | 0.00 | 0.00 | 0.00 | 91 | 1010.9 |
| 20260906053013 | 20 | 121 | 3.2 | 0.0 | 0.00 | 0.00 | 0.00 | 91 | 1010.5 |
| 20260906052548 | 20 | 121 | 4.8 | 0.0 | 0.00 | 0.00 | 0.00 | 91 | 1010.5 |
| 20260906052020 | 20 | 121 | 6.4 | 0.0 | 0.00 | 0.00 | 0.00 | 91 | 1010.5 |
| 20260906051608 | 21 | 121 | 6.4 | 0.0 | 0.00 | 0.00 | 0.00 | 91 | 1010.7 |
| 20260906051036 | 21 | 128 | 8.0 | 0.0 | 0.00 | 0.00 | 0.00 | 91 | 1010.7 |
| 20260906050514 | 21 | 126 | 8.0 | 0.0 | 0.00 | 0.00 | 0.00 | 90 | 1010.7 |
| 20260906050050 | 21 | 123 | 8.0 | 0.0 | 0.00 | 0.00 | 0.00 | 90 | 1010.4 |
| 20260906045525 | 21 | 120 | 9.7 | 0.0 | 0.00 | 0.00 | 0.00 | 90 | 1010.4 |
| 20260906045103 | 21 | 125 | 8.0 | 0.0 | 0.00 | 0.00 | 0.00 | 90 | 1010.4 |
| 20260906045007 | 21 | 126 | 8.0 | 0.0 | 0.00 | 0.00 | 0.00 | 90 | 1010.4 |
| 20260906044552 | 21 | 132 | 8.0 | 0.0 | 0.00 | 0.00 | 0.00 | 90 | 1010.4 |
| 20260906044011 | 21 | 142 | 8.0 | 0.0 | 0.00 | 0.00 | 0.00 | 90 | 1010.4 |
| 20260906043548 | 21 | 142 | 8.0 | 0.0 | 0.00 | 0.00 | 0.00 | 90 | 1010.4 |
| 20260906043017 | 21 | 134 | 9.7 | 0.0 | 0.00 | 0.00 | 0.00 | 90 | 1010.4 |
| 20260906042549 | 21 | 142 | 9.7 | 0.0 | 0.00 | 0.00 | 0.00 | 89 | 1010.4 |
| 20260906042014 | 21 | 126 | 9.7 | 0.0 | 0.00 | 0.00 | 0.00 | 89 | 1010.4 |
| 20260906041553 | 22 | 133 | 9.7 | 0.0 | 0.00 | 0.00 | 0.00 | 89 | 1010.7 |
| 20260906041020 | 22 | 136 | 11.3 | 0.0 | 0.00 | 0.00 | 0.00 | 89 | 1010.7 |
| 20260906040552 | 22 | 141 | 11.3 | 0.0 | 0.00 | 0.00 | 0.00 | 89 | 1010.7 |
| 20260906040023 | 22 | 142 | 9.7 | 0.0 | 0.00 | 0.00 | 0.20 | 89 | 1010.6 |
| 20260906035541 | 22 | 138 | 11.3 | 0.0 | 0.00 | 0.00 | 0.20 | 89 | 1010.6 |
| 20260906035009 | 22 | 134 | 11.3 | 0.0 | 0.00 | 0.00 | 0.20 | 89 | 1010.6 |
| 20260906034558 | 22 | 130 | 11.3 | 0.0 | 0.00 | 0.00 | 0.20 | 89 | 1010.7 |
| 20260906034016 | 21 | 130 | 9.7 | 0.0 | 0.00 | 0.00 | 0.20 | 88 | 1010.7 |
| 20260906033554 | 21 | 132 | 9.7 | 0.0 | 0.00 | 0.00 | 0.20 | 88 | 1010.7 |
| 20260906033044 | 21 | 134 | 8.0 | 0.0 | 0.00 | 0.00 | 0.20 | 88 | 1010.7 |
| 20260906032510 | 21 | 142 | 8.0 | 0.0 | 0.00 | 0.00 | 0.20 | 87 | 1010.7 |
| 20260906032051 | 22 | 153 | 9.7 | 0.0 | 0.00 | 0.00 | 0.20 | 87 | 1010.7 |
| 20260906031518 | 22 | 134 | 8.0 | 0.0 | 0.00 | 0.00 | 0.20 | 87 | 1010.8 |
| 20260906031057 | 22 | 148 | 8.0 | 0.0 | 0.00 | 0.00 | 0.20 | 86 | 1010.8 |
| 20260906030521 | 22 | 138 | 9.7 | 0.0 | 0.00 | 0.00 | 0.20 | 86 | 1010.8 |
| 20260906030002 | 22 | 144 | 9.7 | 0.0 | 0.00 | 0.00 | 0.20 | 85 | 1010.5 |
| 20260906025528 | 22 | 137 | 9.7 | 0.0 | 0.00 | 0.00 | 0.20 | 85 | 1010.5 |
| 20260906025007 | 22 | 142 | 9.7 | 0.0 | 0.00 | 0.00 | 0.20 | 85 | 1010.5 |
| 20260906024531 | 22 | 144 | 11.3 | 0.0 | 0.00 | 0.00 | 0.20 | 84 | 1010.5 |
| 20260906024014 | 22 | 134 | 11.3 | 0.0 | 0.00 | 0.00 | 0.20 | 84 | 1010.5 |
| 20260906023535 | 22 | 133 | 11.3 | 0.0 | 0.00 | 0.00 | 0.20 | 84 | 1010.5 |
| 20260906023014 | 22 | 127 | 11.3 | 0.0 | 0.00 | 0.00 | 0.20 | 84 | 1010.3 |
| 20260906022558 | 22 | 130 | 11.3 | 0.0 | 0.00 | 0.00 | 0.20 | 84 | 1010.3 |
| 20260906022023 | 22 | 139 | 11.3 | 0.0 | 0.00 | 0.00 | 0.20 | 84 | 1010.3 |
| 20260906021601 | 22 | 123 | 9.7 | 0.0 | 0.00 | 0.00 | 0.20 | 84 | 1010.4 |
| 20260906021504 | 22 | 126 | 9.7 | 0.0 | 0.00 | 0.00 | 0.20 | 84 | 1010.4 |
| 20260906021030 | 22 | 127 | 9.7 | 0.0 | 0.00 | 0.00 | 0.20 | 83 | 1010.4 |
| 20260906020510 | 22 | 124 | 9.7 | 0.0 | 0.00 | 0.00 | 0.20 | 82 | 1010.4 |
| 20260906020045 | 22 | 126 | 9.7 | 0.0 | 0.00 | 0.00 | 0.20 | 82 | 1010.4 |
| 20260906015530 | 22 | 126 | 11.3 | 0.0 | 0.00 | 0.00 | 0.20 | 82 | 1010.4 |
| 20260906015051 | 22 | 130 | 9.7 | 0.0 | 0.00 | 0.00 | 0.20 | 81 | 1010.4 |
| 20260906014531 | 22 | 123 | 9.7 | 0.0 | 0.00 | 0.00 | 0.20 | 81 | 1010.3 |
| 20260906014006 | 23 | 124 | 9.7 | 0.0 | 0.00 | 0.00 | 0.20 | 79 | 1010.3 |
| 20260906013548 | 23 | 121 | 11.3 | 0.0 | 0.00 | 0.00 | 0.20 | 79 | 1010.3 |
| 20260906013034 | 23 | 124 | 12.9 | 0.0 | 0.00 | 0.00 | 0.20 | 78 | 1010.3 |
| 20260906012511 | 23 | 117 | 14.5 | 0.0 | 0.00 | 0.00 | 0.20 | 78 | 1010.3 |
| 20260906012052 | 23 | 123 | 12.9 | 0.0 | 0.00 | 0.00 | 0.20 | 78 | 1010.3 |
| 20260906011533 | 23 | 123 | 12.9 | 0.0 | 0.00 | 0.00 | 0.20 | 78 | 1010.3 |
| 20260906011014 | 23 | 125 | 11.3 | 0.0 | 0.00 | 0.00 | 0.20 | 78 | 1010.3 |
| 20260906010538 | 23 | 126 | 11.3 | 0.0 | 0.00 | 0.00 | 0.20 | 78 | 1010.3 |
| 20260906010020 | 23 | 124 | 11.3 | 0.0 | 0.00 | 0.00 | 0.20 | 78 | 1010.2 |
| 20260906005545 | 24 | 126 | 11.3 | 0.0 | 0.00 | 0.00 | 0.20 | 78 | 1010.2 |
| 20260906005031 | 24 | 127 | 9.7 | 0.0 | 0.00 | 0.00 | 0.20 | 77 | 1010.2 |
| 20260906004551 | 24 | 119 | 9.7 | 0.0 | 0.00 | 0.00 | 0.20 | 75 | 1009.8 |
| 20260906004017 | 25 | 121 | 11.3 | 0.0 | 0.00 | 0.00 | 0.20 | 74 | 1009.8 |
| 20260906003552 | 25 | 110 | 12.9 | 0.0 | 0.00 | 0.00 | 0.20 | 73 | 1009.8 |
| 20260906003023 | 26 | 113 | 12.9 | 0.0 | 0.00 | 0.00 | 0.20 | 71 | 1009.7 |
| 20260906002506 | 26 | 116 | 14.5 | 0.0 | 0.00 | 0.00 | 0.20 | 69 | 1009.7 |
| 20260906002044 | 26 | 116 | 16.1 | 0.0 | 0.00 | 0.00 | 0.20 | 68 | 1009.7 |
| 20260906001525 | 27 | 111 | 17.7 | 0.0 | 0.00 | 0.00 | 0.20 | 67 | 1009.5 |
| 20260906001100 | 27 | 108 | 17.7 | 0.0 | 0.00 | 0.00 | 0.20 | 66 | 1009.5 |
| 20260906001006 | 27 | 120 | 17.7 | 0.0 | 0.00 | 0.00 | 0.20 | 66 | 1009.5 |
| 20260906000550 | 27 | 109 | 19.3 | 0.0 | 0.00 | 0.00 | 0.20 | 66 | 1009.5 |
| 20260906000013 | 27 | 128 | 19.3 | 0.0 | 0.00 | 0.00 | 0.20 | 65 | 1009.3 |
| 20260905235538 | 27 | 116 | 20.9 | 0.0 | 0.00 | 0.00 | 0.20 | 65 | 1009.3 |
| 20260905235017 | 27 | 120 | 20.9 | 0.0 | 0.00 | 0.00 | 0.20 | 64 | 1009.3 |
| 20260905234544 | 27 | 115 | 19.3 | 0.0 | 0.00 | 0.00 | 0.20 | 64 | 1009.2 |
| 20260905234100 | 27 | 121 | 22.5 | 0.0 | 0.00 | 0.00 | 0.20 | 64 | 1009.2 |
| 20260905234010 | 27 | 117 | 22.5 | 0.0 | 0.00 | 0.00 | 0.20 | 64 | 1009.2 |
| 20260905233544 | 27 | 102 | 24.1 | 0.0 | 0.00 | 0.00 | 0.20 | 64 | 1009.2 |
| 20260905233010 | 28 | 107 | 25.7 | 0.0 | 0.00 | 0.00 | 0.20 | 65 | 1008.9 |
| 20260905232548 | 28 | 110 | 24.1 | 0.0 | 0.00 | 0.00 | 0.20 | 65 | 1008.9 |
| 20260905232027 | 28 | 109 | 22.5 | 0.0 | 0.00 | 0.00 | 0.20 | 66 | 1008.9 |
| 20260905231605 | 28 | 107 | 24.1 | 0.0 | 0.00 | 0.00 | 0.20 | 66 | 1008.7 |
| 20260905231517 | 28 | 111 | 24.1 | 0.0 | 0.00 | 0.00 | 0.20 | 66 | 1008.7 |
| 20260905231048 | 28 | 121 | 24.1 | 0.0 | 0.00 | 0.00 | 0.20 | 65 | 1008.7 |
| 20260905230514 | 28 | 113 | 24.1 | 0.0 | 0.00 | 0.00 | 0.20 | 66 | 1008.7 |
| 20260905230038 | 28 | 105 | 24.1 | 0.0 | 0.00 | 0.00 | 0.20 | 65 | 1008.7 |
| 20260905225525 | 28 | 107 | 25.7 | 0.0 | 0.00 | 0.00 | 0.20 | 65 | 1008.7 |
| 20260905225014 | 29 | 102 | 25.7 | 0.0 | 0.00 | 0.00 | 0.20 | 64 | 1008.7 |
| 20260905224609 | 29 | 107 | 24.1 | 0.0 | 0.00 | 0.00 | 0.20 | 63 | 1008.7 |
| 20260905224031 | 30 | 110 | 22.5 | 0.0 | 0.00 | 0.00 | 0.20 | 61 | 1008.7 |
| 20260905223548 | 30 | 103 | 22.5 | 0.0 | 0.00 | 0.00 | 0.20 | 59 | 1008.7 |
| 20260905223040 | 30 | 119 | 22.5 | 0.0 | 0.00 | 0.00 | 0.20 | 58 | 1008.8 |
| 20260905222557 | 30 | 101 | 19.3 | 0.0 | 0.00 | 0.00 | 0.20 | 57 | 1008.8 |
| 20260905222037 | 31 | 92 | 19.3 | 0.0 | 0.00 | 0.00 | 0.20 | 57 | 1008.8 |
| 20260905221520 | 31 | 100 | 20.9 | 0.0 | 0.00 | 0.00 | 0.20 | 55 | 1008.5 |
| 20260905221051 | 31 | 107 | 20.9 | 0.0 | 0.00 | 0.00 | 0.20 | 56 | 1008.5 |
| 20260905220534 | 31 | 96 | 19.3 | 0.0 | 0.00 | 0.00 | 0.20 | 55 | 1008.5 |
| 20260905220057 | 31 | 102 | 19.3 | 0.0 | 0.00 | 0.00 | 0.20 | 55 | 1008.5 |
| 20260905215523 | 31 | 87 | 19.3 | 0.0 | 0.00 | 0.00 | 0.20 | 56 | 1008.5 |
| 20260905215100 | 31 | 93 | 19.3 | 0.0 | 0.00 | 0.00 | 0.20 | 54 | 1008.5 |
| 20260905214547 | 31 | 85 | 20.9 | 0.0 | 0.00 | 0.00 | 0.20 | 53 | 1008.4 |
| 20260905214031 | 31 | 103 | 19.3 | 0.0 | 0.00 | 0.00 | 0.20 | 53 | 1008.4 |
| 20260905213554 | 31 | 76 | 19.3 | 0.0 | 0.00 | 0.00 | 0.20 | 53 | 1008.4 |
| 20260905213041 | 31 | 112 | 20.9 | 0.0 | 0.00 | 0.00 | 0.20 | 50 | 1008.5 |
| 20260905212556 | 31 | 129 | 24.1 | 0.0 | 0.00 | 0.00 | 0.20 | 48 | 1008.5 |
| 20260905212024 | 31 | 128 | 20.9 | 0.0 | 0.00 | 0.00 | 0.20 | 49 | 1008.5 |
| 20260905211511 | 31 | 109 | 20.9 | 0.0 | 0.00 | 0.00 | 0.20 | 50 | 1008.4 |
| 20260905211038 | 31 | 123 | 20.9 | 0.0 | 0.00 | 0.00 | 0.20 | 50 | 1008.4 |
| 20260905210522 | 31 | 123 | 19.3 | 0.0 | 0.00 | 0.00 | 0.20 | 50 | 1008.4 |
| 20260905210051 | 31 | 110 | 22.5 | 0.0 | 0.00 | 0.00 | 0.20 | 51 | 1008.6 |
| 20260905205524 | 31 | 107 | 22.5 | 0.0 | 0.00 | 0.00 | 0.20 | 51 | 1008.6 |
| 20260905205047 | 31 | 113 | 20.9 | 0.0 | 0.00 | 0.00 | 0.20 | 51 | 1008.6 |
| 20260905204531 | 31 | 127 | 20.9 | 0.0 | 0.00 | 0.00 | 0.20 | 51 | 1008.4 |
| 20260905204050 | 31 | 128 | 22.5 | 0.0 | 0.00 | 0.00 | 0.20 | 49 | 1008.4 |
| 20260905203534 | 31 | 113 | 20.9 | 0.0 | 0.00 | 0.00 | 0.20 | 51 | 1008.4 |
| 20260905203055 | 31 | 124 | 20.9 | 0.0 | 0.00 | 0.00 | 0.20 | 50 | 1008.5 |
| 20260905202535 | 31 | 107 | 20.9 | 0.0 | 0.00 | 0.00 | 0.20 | 51 | 1008.5 |
| 20260905202019 | 31 | 117 | 20.9 | 0.0 | 0.00 | 0.00 | 0.20 | 51 | 1008.5 |
| 20260905201546 | 31 | 112 | 20.9 | 0.0 | 0.00 | 0.00 | 0.20 | 51 | 1008.5 |
| 20260905201024 | 31 | 107 | 20.9 | 0.0 | 0.00 | 0.00 | 0.20 | 51 | 1008.5 |
| 20260905200600 | 31 | 109 | 20.9 | 0.0 | 0.00 | 0.00 | 0.20 | 51 | 1008.5 |
| 20260905200507 | 31 | 108 | 20.9 | 0.0 | 0.00 | 0.00 | 0.20 | 52 | 1008.5 |
| 20260905200028 | 30 | 124 | 19.3 | 0.0 | 0.00 | 0.00 | 0.20 | 51 | 1008.4 |
| 20260905195506 | 30 | 103 | 17.7 | 0.0 | 0.00 | 0.00 | 0.20 | 55 | 1008.4 |
| 20260905195030 | 30 | 117 | 17.7 | 0.0 | 0.00 | 0.00 | 0.20 | 56 | 1008.4 |
| 20260905194508 | 30 | 101 | 19.3 | 0.0 | 0.00 | 0.00 | 0.20 | 54 | 1008.3 |
| 20260905194048 | 30 | 105 | 17.7 | 0.0 | 0.00 | 0.00 | 0.20 | 54 | 1008.3 |
| 20260905193510 | 30 | 113 | 14.5 | 0.0 | 0.00 | 0.00 | 0.20 | 54 | 1008.3 |
| 20260905193046 | 30 | 112 | 16.1 | 0.0 | 0.00 | 0.00 | 0.20 | 57 | 1008.4 |
| 20260905192530 | 30 | 101 | 16.1 | 0.0 | 0.00 | 0.00 | 0.20 | 57 | 1008.4 |
| 20260905192017 | 29 | 116 | 16.1 | 0.0 | 0.00 | 0.00 | 0.20 | 58 | 1008.4 |
| 20260905191546 | 29 | 79 | 17.7 | 0.0 | 0.00 | 0.00 | 0.20 | 59 | 1008.6 |